Location: Doschendorf
(50.0069°N, 11.0602°E)
Time: 17:08:39
(UTC+00:00)

Gblst 52 Del rocket - Pass Details

Date: 17 November 2019
Orbit: 805 x 1365 km, 51.5° (Epoch: 05 December)

Event Time Altitude Azimuth Distance (km) Brightness Sun altitude
Rises 17:31:04 0° 273° (W) 3,975 9.3 -19.3°
Reaches altitude 10° 17:33:58 10° 274° (W) 2,928 8.2 -19.7°
Maximum altitude 17:40:55 78° 1° (N) 998 4.5 -20.8°
Enters shadow 17:43:18 40° 81° (E) 1,343 4.7 -21.2°
